Date String (YYYY-MM-DD hh:mm:ss) UTC,Instrument flags,Ambient pressure (hPa),Sample flow (lpm),Bypass flow (lpm),Sample temperature (°C),Ambient temperature (°C),ASC tube jacket temperature (°C),LED temperature (°C),Box temperature (°C),Sample RH (%),Span deviation,Mass concentration (μg/m³),Mass concentration (μg/m³),Mass concentration (μg/m³)
DateTimeUTC,F1_M11,P_M11,Q1_M11,Q2_M11,T1_M11,T2_M11,T3_M11,T4_M11,T5_M11,U1_M11,ZSPAN_M11,X0_M11,X2_M11,X1_M11
2023-05-21 07:00:00,,0834.5,5.00,0.00,28.8,26.9,00.0,37.2,30.4,20.3,0002.8,0016.33,0012.30,0011.71
2023-05-21 07:01:00,,0834.5,5.00,0.00,28.8,26.9,00.0,37.2,30.4,20.3,0002.9,0016.44,0012.33,0011.71
2023-05-21 07:02:00,,0834.5,5.01,0.00,28.8,27.0,00.0,37.2,30.4,20.3,0002.8,0016.45,0012.34,0011.73
2023-05-21 07:03:00,,0834.5,5.00,0.00,28.8,27.0,00.0,37.2,30.4,20.4,0002.6,0016.26,0012.32,0011.76
2023-05-21 07:04:00,,0834.5,5.01,0.00,28.8,27.0,00.0,37.2,30.3,20.3,0002.8,0016.32,0012.37,0011.80
2023-05-21 07:05:00,,0834.4,5.00,0.00,28.8,27.0,00.0,37.2,30.4,20.4,0002.8,0016.39,0012.43,0011.84
2023-05-21 07:06:00,,0834.4,5.00,0.00,28.8,27.0,00.0,37.2,30.3,20.3,0002.9,0016.49,0012.50,0011.90
2023-05-21 07:07:00,,0834.4,5.00,0.00,28.8,27.0,00.0,37.2,30.3,20.3,0002.7,0016.52,0012.55,0011.96
2023-05-21 07:08:00,,0834.4,5.00,0.00,28.8,27.0,00.0,37.2,30.3,20.2,0002.7,0016.63,0012.59,0012.01
2023-05-21 07:09:00,,0834.4,4.98,0.00,28.8,27.0,00.0,37.2,30.3,20.3,0002.9,0016.87,0012.68,0012.08
2023-05-21 07:10:00,,0834.4,5.00,0.00,28.8,27.0,00.0,37.2,30.3,20.3,0002.9,0016.98,0012.78,0012.18
2023-05-21 07:11:00,,0834.4,5.00,0.00,28.8,27.0,00.0,37.2,30.3,20.4,0002.8,0017.00,0012.85,0012.28
2023-05-21 07:12:00,,0834.4,5.01,0.00,28.8,27.0,00.0,37.1,30.3,20.3,0002.8,0017.08,0012.93,0012.37
2023-05-21 07:13:00,,0834.4,5.01,0.00,28.7,27.0,00.0,37.1,30.3,20.3,0002.9,0017.47,0013.02,0012.45
2023-05-21 07:14:00,,0834.4,5.01,0.00,28.8,27.0,00.0,37.1,30.3,20.3,0002.9,0018.20,0013.10,0012.51
2023-05-21 07:15:00,,0834.4,5.00,0.00,28.8,27.0,00.0,37.1,30.3,20.3,0002.9,0018.19,0013.13,0012.57
2023-05-21 07:16:00,,0834.4,5.00,0.00,28.7,27.0,00.0,37.1,30.3,20.4,0002.9,0018.64,0013.17,0012.62
2023-05-21 07:17:00,,0834.4,5.00,0.00,28.7,27.0,00.0,37.1,30.3,20.4,0003.0,0018.69,0013.23,0012.68
2023-05-21 07:18:00,,0834.4,4.99,0.00,28.7,27.0,00.0,37.1,30.3,20.4,0003.2,0018.81,0013.31,0012.74
2023-05-21 07:19:00,,0834.4,5.00,0.00,28.7,27.0,00.0,37.1,30.3,20.3,0003.1,0018.78,0013.39,0012.84
2023-05-21 07:20:00,,0834.3,5.00,0.00,28.7,27.0,00.0,37.1,30.3,20.5,0003.1,0018.75,0013.44,0012.90
2023-05-21 07:21:00,,0834.4,5.00,0.00,28.7,27.0,00.0,37.1,30.3,20.4,0003.4,0018.75,0013.46,0012.90
2023-05-21 07:22:00,,0834.3,5.00,0.00,28.7,26.9,00.0,37.1,30.3,20.4,0003.6,0018.85,0013.51,0012.93
2023-05-21 07:23:00,,0834.4,5.01,0.00,28.7,26.9,00.0,37.1,30.3,20.6,0003.6,0018.89,0013.54,0012.96
2023-05-21 07:24:00,,0834.3,5.00,0.00,28.7,26.9,00.0,37.1,30.3,20.7,0003.6,0018.65,0013.59,0013.00
2023-05-21 07:25:00,,0834.3,5.01,0.00,28.7,26.9,00.0,37.1,30.3,20.5,0003.7,0018.06,0013.60,0013.04
2023-05-21 07:26:00,,0834.4,5.01,0.00,28.7,26.9,00.0,37.1,30.3,20.4,0003.8,0018.07,0013.65,0013.07
2023-05-21 07:27:00,,0834.3,5.00,0.00,28.7,26.9,00.0,37.1,30.3,20.4,0003.8,0017.85,0013.73,0013.13
2023-05-21 07:28:00,,0834.3,5.00,0.00,28.7,26.9,00.0,37.1,30.3,20.4,0003.8,0018.26,0013.74,0013.14
2023-05-21 07:29:00,,0834.3,4.99,0.00,28.7,26.9,00.0,37.1,30.3,20.4,0003.7,0018.61,0013.74,0013.14
2023-05-21 07:30:00,,0834.3,5.00,0.00,28.7,26.9,00.0,37.1,30.3,20.4,0003.7,0018.71,0013.74,0013.11
2023-05-21 07:31:00,,0834.3,5.00,0.00,28.7,26.9,00.0,37.1,30.3,20.3,0003.7,0018.74,0013.72,0013.09
2023-05-21 07:32:00,,0834.6,4.99,0.00,28.7,26.9,00.0,37.1,30.3,20.3,0003.5,0018.66,0013.69,0013.07
2023-05-21 07:33:00,,0834.3,5.00,0.00,28.7,26.8,00.0,37.1,30.2,20.3,0003.4,0018.57,0013.66,0013.08
2023-05-21 07:34:00,,0834.5,5.00,0.00,28.7,26.8,00.0,37.1,30.2,20.3,0003.2,0018.55,0013.65,0013.07
2023-05-21 07:35:00,,0834.4,5.00,0.00,28.7,26.8,00.0,37.0,30.2,20.3,0003.2,0018.51,0013.63,0013.06
2023-05-21 07:36:00,,0834.5,5.00,0.00,28.7,26.8,00.0,37.0,30.2,20.4,0003.2,0018.44,0013.60,0013.04
2023-05-21 07:37:00,,0834.6,5.01,0.00,28.7,26.8,00.0,37.0,30.2,20.3,0003.0,0018.46,0013.59,0013.03
2023-05-21 07:38:00,,0834.6,5.01,0.00,28.6,26.8,00.0,37.0,30.2,20.3,0003.0,0018.43,0013.56,0013.01
2023-05-21 07:39:00,,0834.4,5.01,0.00,28.6,26.8,00.0,37.0,30.2,20.3,0003.0,0017.88,0013.55,0013.04
2023-05-21 07:40:00,,0834.3,5.00,0.00,28.6,26.8,00.0,37.0,30.2,20.3,0003.1,0017.61,0013.56,0013.07
2023-05-21 07:41:00,,0834.4,4.98,0.00,28.6,26.8,00.0,37.0,30.2,20.3,0003.1,0017.37,0013.55,0013.08
2023-05-21 07:42:00,,0834.7,5.01,0.00,28.6,26.8,00.0,37.0,30.2,20.3,0003.0,0017.39,0013.57,0013.09
2023-05-21 07:43:00,,0834.3,5.01,0.00,28.6,26.8,00.0,37.0,30.2,20.3,0003.0,0017.57,0013.65,0013.15
2023-05-21 07:44:00,,0834.3,5.01,0.00,28.6,26.8,00.0,37.0,30.2,20.3,0003.1,0017.70,0013.74,0013.22
2023-05-21 07:45:00,,0834.2,4.99,0.00,28.6,26.8,00.0,37.0,30.2,20.3,0003.2,0017.78,0013.80,0013.27
2023-05-21 07:46:00,,0834.2,4.99,0.00,28.6,26.8,00.0,37.0,30.2,20.3,0003.3,0017.79,0013.84,0013.32
2023-05-21 07:47:00,,0834.5,5.00,0.00,28.6,26.8,00.0,37.0,30.2,20.3,0003.4,0018.06,0014.01,0013.45
2023-05-21 07:48:00,,0834.4,5.00,0.00,28.6,26.8,00.0,37.0,30.2,20.4,0003.5,0018.45,0014.13,0013.54
2023-05-21 07:49:00,,0834.2,5.00,0.00,28.6,26.8,00.0,37.0,30.2,20.9,0003.5,0018.97,0014.18,0013.59
2023-05-21 07:50:00,,0834.4,5.00,0.00,28.6,26.8,00.0,37.0,30.2,21.7,0003.4,0018.97,0014.15,0013.55
2023-05-21 07:51:00,,0834.4,5.00,0.00,28.6,26.8,00.0,37.0,30.2,21.6,0003.3,0018.96,0014.12,0013.51
2023-05-21 07:52:00,,0834.2,5.00,0.00,28.6,26.8,00.0,37.0,30.2,20.8,0003.2,0018.89,0014.09,0013.49
2023-05-21 07:53:00,,0834.2,5.00,0.00,28.6,26.8,00.0,37.0,30.2,20.4,0003.3,0018.82,0014.09,0013.51
2023-05-21 07:54:00,,0834.2,5.00,0.00,28.6,26.8,00.0,36.9,30.2,20.3,0003.3,0018.78,0014.07,0013.52
2023-05-21 07:55:00,,0834.2,4.99,0.00,28.6,26.8,00.0,36.9,30.2,20.2,0003.2,0018.82,0014.09,0013.53
2023-05-21 07:56:00,,0834.2,4.99,0.00,28.6,26.8,00.0,36.9,30.2,20.2,0003.3,0018.85,0014.14,0013.57
2023-05-21 07:57:00,,0834.2,5.00,0.00,28.6,26.8,00.0,36.9,30.1,20.3,0003.4,0018.96,0014.19,0013.59
2023-05-21 07:58:00,,0834.2,5.00,0.00,28.6,26.8,00.0,36.9,30.1,20.2,0003.2,0018.83,0014.12,0013.56
2023-05-21 07:59:00,,0834.2,5.00,0.00,28.6,26.8,00.0,36.9,30.1,20.3,0003.0,0018.72,0014.12,0013.55
